Flag for Germany Weather past 2 weeks in Ehingen (Donau), Baden-Württemberg, Germany

Now
50 °F

Rain. Fog.


Feels Like: 48 °F
Forecast: 33 / 58 °F
Wind: 6 mph from Northwest

Location: Laupheim Airport

Current Time: Apr 28, 2015 at 3:53:58 AM

Latest Report: Apr 28, 2015 at 3:20 AM


Visibility: 3 mi

Pressure: 29.65 "Hg

Humidity: 94%

Dew point: 48 °F

Location of Ehingen (Donau)Location

Historic Weather in Ehingen (Donau) — Graph

°F

Ehingen (Donau) temperature yesterday

Maximum temperature yesterday: 68 °F (at 3:20 PM)
Minimum temperature yesterday: 46 °F (at 5:20 AM)
Average temperature yesterday: 58 °F

Past Weeks' High & Low Weather Summary

 TemperatureHumidityPressure
High73 °F (Apr 15, 4:20 PM)100% (Apr 17, 6:20 PM)30.45 "Hg (Apr 17, 6:20 PM)
Low30 °F (Apr 19, 5:20 AM)17% (Apr 15, 5:00 PM)29.50 "Hg (Apr 27, 5:00 PM)
Average52 °F62%30.07 "Hg
* Reported Apr 13 2:20 AM — Apr 28 2:20 AM, Ehingen (Donau), Weather by CustomWeather, © 2015

Note: Actual official high and low records may vary slightly from our data, if they occured in-between our weather recording intervals... More about our weather records

Advertising

Ehingen (Donau) weather history for previous 24 hours

 ConditionsComfort  
Time TempWeatherWind HumidityBarometerVisibility
2:20 AM
Tue, Apr 28
52 °FLight rain. Passing clouds.6 mph94%29.62 "HgN/A
1:20 AM52 °FLight rain. Passing clouds.5 mph100%29.59 "HgN/A
12:20 AM52 °FRain. Passing clouds.1 mph94%29.59 "HgN/A
11:20 PM
Mon, Apr 27
54 °FRain. Passing clouds.9 mph88%29.59 "HgN/A
10:20 PM55 °FLight rain. Partly cloudy.8 mph88%29.56 "HgN/A
9:20 PM55 °FStrong thunderstorms. Partly sunny.12 mph94%29.53 "Hg2 mi
8:53 PM57 °FStrong thunderstorms. Partly sunny.7 mph88%29.53 "Hg1 mi
8:20 PM59 °FSprinkles. Broken clouds.2 mph77%29.53 "HgN/A
7:20 PM59 °FPartly sunny.3 mph82%29.50 "HgN/A
6:20 PM57 °FThunderstorms. Broken clouds.8 mph77%29.50 "HgN/A
6:04 PM59 °FThunderstorms. Broken clouds.15 mph72%29.50 "Hg4 mi
6:03 PM61 °FThunderstorms. Broken clouds.14 mph68%29.50 "Hg4 mi
5:20 PM66 °FThunderstorms. Partly sunny.12 mph52%29.50 "HgN/A
5:00 PM68 °FPartly sunny.7 mph53%29.50 "HgN/A
4:20 PM68 °FPartly sunny.8 mph53%29.53 "HgN/A
3:20 PM68 °FBroken clouds.9 mph49%29.53 "HgN/A
2:20 PM66 °FBroken clouds.8 mph56%29.56 "HgN/A
1:20 PM64 °FBroken clouds.7 mph60%29.56 "HgN/A
12:20 PM63 °FBroken clouds.7 mph59%29.59 "HgN/A
11:20 AM61 °FBroken clouds.6 mph72%29.59 "HgN/A
10:20 AM57 °FPartly sunny.3 mph77%29.59 "HgN/A
9:20 AM57 °FScattered clouds.1 mph77%29.62 "HgN/A
8:20 AM54 °FScattered clouds.1 mph88%29.59 "HgN/A
7:20 AM50 °FPassing clouds.1 mph94%29.59 "HgN/A
6:20 AM46 °FFog.3 mph93%29.59 "HgN/A
5:20 AM46 °FPassing clouds.3 mph93%29.59 "HgN/A
4:20 AM48 °FPassing clouds.5 mph87%29.62 "HgN/A
3:20 AM50 °FPassing clouds.3 mph88%29.62 "HgN/A
Weather by CustomWeather, © 2015

See weather overviewHow to use our weather pages